Location: Fontevrault
(47.1823°N, 0.0493°E)
Time: 14:51:43
(UTC+00:00)

Lacrosse 5 - Pass Details

Date: 31 October 2021
Orbit: 714 x 724 km, 57.0° (Epoch: 28 August)

Event Time Altitude Azimuth Distance (km) Brightness Sun altitude
Rises 19:39:00 0° 242° (WSW) 3,131 5.9 -30.0°
Reaches altitude 10° 19:41:24 10° 245° (WSW) 2,213 5.0 -30.4°
Enters shadow 19:45:15 48° 271° (W) 950 2.7 -31.1°
